Tracking 35237 objects as of 5-Sep-2026
HD Live streaming from Space Station
objects crossing your sky now

IRIDIUM 33 DEB


IRIDIUM 33 DEB is no longer on orbit


NORAD ID: 35855
Int'l Code: 1997-051TF
Launch date: September 14, 1997
Source: United States (US)
Launch site: TYURATAM MISSILE AND SPACE COMPLEX (TTMTR)
Decay date: 2018-06-07

Note: This is SATELLITE DEBRIS
Your satellite tracking list
Your tracking list is empty




NASA's NSSDC Master Catalog

Two Line Element Set (TLE):
1 35855U 97051TF  11081.96579541  .00012207  00000-0  45852-2 0  9993
2 35855  86.4098 167.9256 0065307 120.1283 245.8170 14.30309863 82337
Source of the keplerian elements: AFSPC